Los Alamos, NM

9:37 AM MDT on August 17, 2017 (GMT -0600)
Los Alamos

Weather History for KLAM - February, 2014

Change the Weather History Date:

Tuesday, February 25, 2014

  Actual Average Record
Temperature  
Mean Temperature 49 °F -  
Max Temperature 59 °F 46 °F 69 °F (1986)
Min Temperature 39 °F 23 °F 0 °F (1960)
Degree Days  
Heating Degree Days 16    
Moisture  
Dew Point 2 °F    
Average Humidity 16    
Maximum Humidity 28    
Minimum Humidity 6    
Precipitation  
Precipitation 0.00 in - - ()
Sea Level Pressure  
Sea Level Pressure 30.08 in    
Wind  
Wind Speed 5 mph (SW)    
Max Wind Speed 22 mph    
Max Gust Speed 31 mph    
Visibility 10 miles    
Events      
Averages and records for this station are not official NWS values.
T = Trace of Precipitation, MM = Missing Value Source: NWS Daily Summary

Daily Weather History Graph

Daily Weather History Graph

Search for Another Location

Airport or City:

Trip Planner

Search our weather history database for the weather conditions in past years. The results will help you decide how hot, cold, wet, or windy it might be!

Date:

Astronomy

Feb. 25, 2014 Rise Set
Actual Time 6:40 AM MST 5:56 PM MST
Civil Twilight 6:14 AM MST 6:22 PM MST
Nautical Twilight 5:44 AM MST 6:52 PM MST
Astronomical Twilight 5:15 AM MST 7:21 PM MST
Moon 3:32 AM MST (2/25) 2:10 PM MST (2/25)
Length of Visible Light 12h 07m
Length of Day
11h 16m
Waning Crescent, 17% of the Moon is Illuminated
Feb 25
Waning Crescent
Mar 1
New
Mar 8
First Quarter
Mar 16
Full
Mar 23
Last Quarter

Hourly Weather History & Observations

Time (MST) Temp. Windchill Dew Point Humidity Pressure Visibility Wind Dir Wind Speed Gust Speed Precip Events Conditions
12:15 AM 46.8 °F - 1.9 °F 16% 30.15 in 10.0 mi Calm Calm - N/A   Clear
12:35 AM 47.1 °F - 1.2 °F 15% 30.15 in 10.0 mi Calm Calm - N/A   Clear
12:55 AM 45.7 °F 43.4 °F 1.9 °F 16% 30.14 in 10.0 mi WNW 4.6 mph - N/A   Clear
1:15 AM 45.5 °F - 2.1 °F 17% 30.14 in 10.0 mi Calm Calm - N/A   Clear
1:35 AM 44.4 °F - 2.7 °F 18% 30.14 in 10.0 mi Calm Calm - N/A   Clear
1:55 AM 43.0 °F 40.3 °F 3.2 °F 19% 30.14 in 10.0 mi South 4.6 mph - N/A   Clear
2:15 AM 41.9 °F 38.2 °F 4.1 °F 21% 30.14 in 10.0 mi SSE 5.8 mph - N/A   Clear
2:35 AM 43.0 °F - 3.2 °F 19% 30.13 in 10.0 mi Calm Calm - N/A   Clear
2:55 AM 43.3 °F - 3.2 °F 19% 30.13 in 10.0 mi Calm Calm - N/A   Clear
3:15 AM 44.2 °F 41.0 °F 2.8 °F 18% 30.13 in 10.0 mi South 5.8 mph - N/A   Clear
3:35 AM 43.5 °F 40.9 °F 4.3 °F 20% 30.13 in 10.0 mi SW 4.6 mph - N/A   Clear
3:55 AM 42.8 °F 39.3 °F 5.4 °F 21% 30.13 in 10.0 mi WSW 5.8 mph - N/A   Clear
4:15 AM 44.6 °F 40.7 °F 4.8 °F 19% 30.12 in 10.0 mi SW 6.9 mph - N/A   Clear
4:35 AM 44.1 °F - 5.0 °F 20% 30.12 in 10.0 mi Calm Calm - N/A   Clear
4:55 AM 45.0 °F 42.6 °F 4.1 °F 19% 30.12 in 10.0 mi South 4.6 mph - N/A   Clear
5:15 AM 43.3 °F - 5.5 °F 21% 30.12 in 10.0 mi Calm Calm - N/A   Clear
5:35 AM 42.3 °F - 6.1 °F 23% 30.12 in 10.0 mi Calm Calm - N/A   Clear
5:55 AM 41.5 °F 39.6 °F 6.6 °F 24% 30.13 in 10.0 mi South 3.5 mph - N/A   Clear
6:15 AM 39.4 °F 36.1 °F 7.2 °F 26% 30.13 in 10.0 mi SSE 4.6 mph - N/A   Clear
6:35 AM 40.5 °F 37.3 °F 6.8 °F 25% 30.12 in 10.0 mi SW 4.6 mph - N/A   Clear
6:55 AM 40.1 °F 36.1 °F 7.3 °F 26% 30.13 in 10.0 mi South 5.8 mph - N/A   Clear
7:15 AM 41.0 °F 36.4 °F 7.7 °F 25% 30.13 in 10.0 mi South 6.9 mph - N/A   Clear
7:35 AM 40.5 °F - 8.8 °F 27% 30.13 in 10.0 mi Calm Calm - N/A   Clear
7:55 AM 42.6 °F - 7.9 °F 24% 30.13 in 10.0 mi Calm Calm - N/A   Clear
8:15 AM 42.1 °F - 9.1 °F 26% 30.14 in 10.0 mi Calm Calm - N/A   Clear
8:35 AM 41.5 °F 39.6 °F 10.6 °F 28% 30.14 in 10.0 mi SE 3.5 mph - N/A   Clear
8:55 AM 43.2 °F - 9.1 °F 25% 30.14 in 10.0 mi Calm Calm - N/A   Clear
9:15 AM 43.9 °F 40.5 °F 7.7 °F 23% 30.13 in 10.0 mi SE 5.8 mph - N/A   Clear
9:35 AM 46.4 °F 45.2 °F 7.2 °F 20% 30.13 in 10.0 mi ESE 3.5 mph - N/A   Clear
9:55 AM 47.7 °F - 6.1 °F 18% 30.12 in 10.0 mi SE 5.8 mph - N/A   Clear
10:15 AM 49.1 °F - 6.1 °F 17% 30.11 in 10.0 mi ESE 6.9 mph - N/A   Clear
10:35 AM 47.8 °F - 5.9 °F 18% 30.11 in 10.0 mi SE 6.9 mph - N/A   Clear
10:55 AM 48.9 °F - 6.4 °F 18% 30.11 in 10.0 mi NE 3.5 mph - N/A   Clear
11:15 AM 50.0 °F - 5.4 °F 16% 30.10 in 10.0 mi ENE 6.9 mph - N/A   Clear
11:35 AM 52.0 °F - 4.8 °F 15% 30.09 in 10.0 mi NE 3.5 mph - N/A   Clear
11:55 AM 53.1 °F - 5.0 °F 14% 30.09 in 10.0 mi East 8.1 mph - N/A   Clear
12:15 PM 53.8 °F - 4.1 °F 13% 30.07 in 10.0 mi ESE 6.9 mph - N/A   Clear
12:35 PM 55.4 °F - 4.1 °F 13% 30.05 in 10.0 mi ENE 12.7 mph 18.4 mph N/A   Clear
12:55 PM 56.1 °F - 3.6 °F 12% 30.04 in 10.0 mi North 3.5 mph - N/A   Clear
1:15 PM 55.8 °F - 3.4 °F 12% 30.03 in 10.0 mi SW 5.8 mph - N/A   Clear
1:35 PM 59.0 °F - -4.4 °F 8% 30.01 in 10.0 mi West 17.3 mph 24.2 mph N/A   Clear
1:55 PM 59.5 °F - -6.7 °F 7% 30.01 in 10.0 mi West 16.1 mph 25.3 mph N/A   Clear
2:15 PM 59.2 °F - -8.5 °F 6% 30.00 in 10.0 mi West 20.7 mph 31.1 mph N/A   Clear
2:35 PM 59.0 °F - -11.0 °F 6% 30.00 in 10.0 mi West 21.9 mph 27.6 mph N/A   Clear
2:55 PM 59.2 °F - -8.0 °F 6% 30.00 in 10.0 mi West 13.8 mph 26.5 mph N/A   Clear
3:15 PM 58.1 °F - -6.7 °F 7% 29.99 in 10.0 mi West 6.9 mph 18.4 mph N/A   Clear
3:35 PM 59.7 °F - -8.0 °F 6% 29.99 in 10.0 mi WNW 15.0 mph 20.7 mph N/A   Clear
3:55 PM 59.2 °F - -8.7 °F 6% 29.99 in 10.0 mi WSW 12.7 mph 20.7 mph N/A   Clear
4:15 PM 57.4 °F - -9.8 °F 6% 30.00 in 10.0 mi WNW 16.1 mph 21.9 mph N/A   Clear
4:35 PM 57.9 °F - -9.2 °F 6% 30.00 in 10.0 mi West 17.3 mph 25.3 mph N/A   Clear
4:55 PM 57.2 °F - -8.9 °F 7% 30.00 in 10.0 mi WSW 12.7 mph 24.2 mph N/A   Clear
5:15 PM 56.1 °F - -6.7 °F 8% 30.01 in 10.0 mi West 8.1 mph - N/A   Clear
5:35 PM 55.4 °F - -6.0 °F 8% 30.01 in 10.0 mi WSW 8.1 mph - N/A   Clear
5:55 PM 54.1 °F - -2.9 °F 10% 30.01 in 10.0 mi WSW 12.7 mph 17.3 mph N/A   Clear
6:15 PM 53.6 °F - -2.0 °F 10% 30.03 in 10.0 mi West 6.9 mph - N/A   Clear
6:35 PM 53.4 °F - -0.0 °F 11% 30.04 in 10.0 mi West 4.6 mph - N/A   Clear
6:55 PM 52.5 °F - 1.0 °F 12% 30.04 in 10.0 mi WSW 4.6 mph - N/A   Clear
7:15 PM 53.1 °F - 0.7 °F 12% 30.04 in 10.0 mi Calm Calm - N/A   Clear
7:35 PM 51.8 °F - 1.2 °F 13% 30.05 in 10.0 mi WNW 4.6 mph - N/A   Clear
7:55 PM 51.4 °F - 1.4 °F 13% 30.05 in 10.0 mi WNW 3.5 mph - N/A   Clear
8:15 PM 51.1 °F - 1.4 °F 13% 30.05 in 10.0 mi Calm Calm - N/A   Clear
8:35 PM 51.4 °F - 1.0 °F 13% 30.05 in 10.0 mi Calm Calm - N/A   Clear
8:55 PM 50.4 °F - 1.9 °F 14% 30.06 in 10.0 mi Calm Calm - N/A   Clear
9:15 PM 50.4 °F - 2.5 °F 14% 30.05 in 10.0 mi South 6.9 mph - N/A   Clear
9:35 PM 49.1 °F - 3.4 °F 15% 30.06 in 10.0 mi SW 9.2 mph - N/A   Clear
9:55 PM 50.2 °F - 2.5 °F 14% 30.06 in 10.0 mi WSW 8.1 mph - N/A   Clear
10:15 PM 49.8 °F - 2.3 °F 14% 30.06 in 10.0 mi WSW 9.2 mph - N/A   Clear
10:35 PM 49.8 °F - 2.3 °F 14% 30.06 in 10.0 mi SW 5.8 mph - N/A   Clear
10:55 PM 49.3 °F - 2.7 °F 15% 30.07 in 10.0 mi South 5.8 mph - N/A   Clear
11:15 PM 48.4 °F - 3.2 °F 16% 30.07 in 10.0 mi SW 6.9 mph - N/A   Clear
11:35 PM 48.0 °F - 3.7 °F 16% 30.07 in 10.0 mi SW 6.9 mph - N/A   Clear
11:55 PM 46.8 °F - 4.6 °F 18% 30.07 in 10.0 mi SW 6.9 mph - N/A   Clear